Location: Unspecified
(0.0000°N, 0.0000°E)
Time: 19:45:09
(UTC+00:00)

Transit 2A - Visible Passes

Search period start: 03 December 2016 00:00
Search period end: 13 December 2016 00:00
Orbit: 597 x 963 km, 66.7° (Epoch: 02 December)

Date Brightness Start Highest point End Pass type
(mag) Time Alt. Az. Time Alt. Az. Time Alt. Az.
03 Dec 5.4 19:09:54 10° N 19:14:10 62° ENE 19:18:27 10° SSE visible
04 Dec 6.1 18:36:22 10° N 18:40:14 32° ENE 18:44:07 10° SE visible
05 Dec 8.4 19:46:22 10° WNW 19:49:09 17° WSW 19:51:56 10° SSW visible
06 Dec 7.5 19:11:24 10° NW 19:15:10 30° WSW 19:19:01 10° S visible
07 Dec 6.2 18:37:01 10° NNW 18:41:14 57° WSW 18:45:31 10° S visible
08 Dec 8.8 05:27:31 10° S 05:32:59 31° ESE 05:38:24 10° NE visible
09 Dec 9.4 04:54:37 10° SSE 04:59:00 19° ESE 05:03:21 10° ENE visible
10 Dec 9.8 04:22:56 10° SE 04:25:00 12° ESE 04:27:02 10° E visible
10 Dec 9.0 18:39:55 10° WNW 18:42:17 14° WSW 18:44:42 10° SW visible
12 Dec 7.4 04:54:01 10° S 05:00:12 54° ESE 05:06:17 10° NE visible
